Regional Weather Roundup
Issued by NWS

Home | Current Version | Previous Version | Graphics & Text | Print | Product List | Glossary On
Versions: 1 2 3 4 5 6 7 8 9 10 11 12 13 14 15 16 17 18 19 20 21 22 23 24 25 26 27 28 29 30 31 32 33 34 35 36 37 38 39 40 41 42 43 44 45 46 47 48 49 50
000
ASUS43 KLSX 301359
RWRMO

WEATHER SUMMARY FOR MISSOURI
NATIONAL WEATHER SERVICE SPRINGFIELD MO
900 AM CDT THU OCT 30 2014

NOTE: "FAIR" INDICATES FEW OR NO CLOUDS BELOW 12,000 FEET WITH NO
       SIGNIFICANT WEATHER AND/OR OBSTRUCTIONS TO VISIBILITY.
       CURRENT SKY AND/OR WEATHER CONDITIONS ARE NOT AVAILABLE FOR
       CHILLICOTHE AND FARMINGTON.

MOZ001>031-035>038-043-044-053-054-301500-
...NORTHERN AND WESTERN MISSOURI...

CITY           SKY/WX    TMP DP  RH WIND       PRES   REMARKS
KANSAS CTY INT PTSUNNY   51  43  74 SW6       30.02R
KANSAS C DTWN  CLOUDY    55  41  59 SW5       30.02R
LEE`S SUMMIT   PTSUNNY   54  41  61 NW6       30.04R
ST JOSEPH      PTSUNNY   44  39  82 CALM      30.03R
KIRKSVILLE     CLOUDY    45  39  79 S7        30.06S

$$
MOZ066>068-077>081-088>096-101>105-301500-
...SOUTHWEST MISSOURI...

CITY           SKY/WX    TMP DP  RH WIND       PRES   REMARKS
SPRINGFIELD    MOSUNNY   49  38  65 S13       30.09S
JOPLIN         PTSUNNY   57  41  55 SW17      30.08R

$$
MOZ032>034-039>042-045>050-055>058-069>072-301500-
...CENTRAL MISSOURI...

CITY           SKY/WX    TMP DP  RH WIND       PRES   REMARKS
COLUMBIA       CLOUDY    44  36  73 SE8       30.11R
JEFFERSON CITY CLOUDY    44  37  76 SE6       30.11R
ROLLA          SUNNY     46  32  58 S14       30.09S
SEDALIA        CLOUDY    48  41  76 VRB5      30.07R
OSAGE BEACH    MOSUNNY   46  34  61 S8        30.09R

$$
MOZ051-052-059>065-301500-
...EAST CENTRAL MISSOURI...

CITY           SKY/WX    TMP DP  RH WIND       PRES   REMARKS
ST LOUIS INTL  PTSUNNY   48  38  68 SE9       30.14F
SPIRIT OF STL  PTSUNNY   39  37  92 CALM      30.14R
ST CHARLES     CLOUDY    43  41  93 E6        30.14S

$$
MOZ072>076-082>087-097>100-106>115-301500-
...SOUTH CENTRAL AND SOUTHEAST MISSOURI...

CITY           SKY/WX    TMP DP  RH WIND       PRES   REMARKS
CAPE GIRARDEAU FOG       40  39  97 E3        30.18S VSB 1/4
FARMINGTON     SUNNY     37  34  87 NW3       30.16S
POPLAR BLUFF   SUNNY     42  37  82 CALM      30.17S
WEST PLAINS    SUNNY     47  33  58 S5        30.15S

$$



USA.gov is the U.S. government's official web portal to all federal, state and local government web resources and services.